Regional Weather Roundup
Issued by NWS

Home | Current Version | Previous Version | Text Only | Print | Product List | Glossary On
Versions: 1 2 3 4 5 6 7 8 9 10 11 12 13 14 15 16 17 18 19 20 21 22 23 24 25 26 27 28 29 30 31 32 33 34 35 36 37 38 39 40 41 42 43 44 45 46 47 48 49 50
000
ASUS43 KLSX 060459
RWRMO

WEATHER SUMMARY FOR MISSOURI
NATIONAL WEATHER SERVICE SPRINGFIELD MO
1200 AM CDT WED MAY 06 2015

NOTE: "FAIR" INDICATES FEW OR NO CLOUDS BELOW 12,000 FEET WITH NO
       SIGNIFICANT WEATHER AND/OR OBSTRUCTIONS TO VISIBILITY.
       CURRENT SKY AND/OR WEATHER CONDITIONS ARE NOT AVAILABLE FOR
       CHILLICOTHE AND FARMINGTON.

MOZ001>031-035>038-043-044-053-054-060600-
...NORTHERN AND WESTERN MISSOURI...

CITY           SKY/WX    TMP DP  RH WIND       PRES   REMARKS
KANSAS CTY INT CLOUDY    66  62  87 E12       30.02F
KANSAS C DTWN  CLOUDY    68  63  84 E6        30.01F
LEE`S SUMMIT   CLOUDY    68  60  75 SE5       30.04F
ST JOSEPH      CLOUDY    65  62  90 SE6       30.01F
CHILLICOTHE      N/A     69  60  73 SE6       30.07F
KIRKSVILLE     MOCLDY    68  60  75 S9        30.10S

$$
MOZ066>068-077>081-088>096-101>105-060600-
...SOUTHWEST MISSOURI...

CITY           SKY/WX    TMP DP  RH WIND       PRES   REMARKS
SPRINGFIELD    PTCLDY    69  53  56 SE14      30.07F
JOPLIN         CLOUDY    70  55  59 SE12      30.03S

$$
MOZ032>034-039>042-045>050-055>058-069>072-060600-
...CENTRAL MISSOURI...

CITY           SKY/WX    TMP DP  RH WIND       PRES   REMARKS
COLUMBIA       PTCLDY    66  60  81 SE6       30.11R
JEFFERSON CITY PTCLDY    64  60  87 E5        30.10R
ROLLA          PTCLDY    65  56  72 SE9       30.11S
SEDALIA        CLOUDY    67  57  70 SE7       30.08F
OSAGE BEACH    PTCLDY    66  54  63 SE3       30.10S

$$
MOZ051-052-059>065-060600-
...EAST CENTRAL MISSOURI...

CITY           SKY/WX    TMP DP  RH WIND       PRES   REMARKS
ST LOUIS INTL  PTCLDY    74  57  55 S8        30.14S
SPIRIT OF STL  CLEAR     68  58  70 SE3       30.12S
ST CHARLES     CLEAR     64  54  69 E7        30.12S

$$
MOZ072>076-082>087-097>100-106>115-060600-
...SOUTH CENTRAL AND SOUTHEAST MISSOURI...

CITY           SKY/WX    TMP DP  RH WIND       PRES   REMARKS
CAPE GIRARDEAU CLEAR     64  56  75 S6        30.16R
FARMINGTON     CLEAR     64  57  77 S5        30.19F
POPLAR BLUFF   CLEAR     63  57  81 CALM      30.14S
WEST PLAINS    CLEAR     67  51  56 S9        30.14F

$$


USA.gov is the U.S. government's official web portal to all federal, state and local government web resources and services.